Tracking 30746 objects as of 20-Jun-2025
HD Live streaming from Space Station
objects crossing your sky now

USA 179

Track USA 179 now!
USA 179 is classified as:


NORAD ID: 28384
Int'l Code: 2004-034A
Perigee: 596.8 km
Apogee: 39,767.8 km
Inclination: 63.9 °
Period: 717.7 minutes
Semi major axis: 26553 km
RCS: Unknown
Launch date: August 31, 2004
Source: United States (US)
Launch site: AIR FORCE EASTERN TEST RANGE (AFETR)
Your satellite tracking list
Your tracking list is empty




NASA's NSSDC Master Catalog

Two Line Element Set (TLE):
1 28384U 04034A   25049.82708287 0.00000000  00000-0  00000-0 0    01
2 28384  63.9236 276.3532 7375911 259.8969  17.5110  2.00643157    08
Source of the keplerian elements: McCants